Berthoud Pass, CO

8:25 PM MST on December 08, 2019 (GMT -0700)
Berthoud Pass

Weather History for K0CO - November, 2019

Change the Weather History Date:

Saturday, November 16, 2019

  Actual Average (WUND) Record (WUND)
Temperature  
Mean Temperature 21 °F -  
Max Temperature 28 °F - - (-1)
Min Temperature 14 °F - - (-1)
Degree Days  
Heating Degree Days 44    
Moisture  
Dew Point 5 °F    
Average Humidity 50    
Maximum Humidity 54    
Minimum Humidity 46    
Precipitation  
Precipitation 0.00 in - - ()
Sea Level Pressure  
Sea Level Pressure 30.25 in    
Wind  
Wind Speed 26 mph (NW)    
Max Wind Speed 36 mph    
Max Gust Speed 47 mph    
Visibility 8 miles    
Events Snow    
Averages and records for this station are not official NWS values.
T = Trace of Precipitation, MM = Missing Value Source: NWS Daily Summary

Daily Weather History Graph

Daily Weather History Graph

Search for Another Location

Airport or City:

Astronomy

Nov. 16, 2019 Rise Set
Actual Time 6:48 AM MST 4:46 PM MST
Civil Twilight 6:19 AM MST 5:15 PM MST
Nautical Twilight 5:46 AM MST 5:48 PM MST
Astronomical Twilight 5:15 AM MST 6:20 PM MST
Moon 8:22 PM MST (11/16) 10:44 AM MST (11/16)
Length of Visible Light 10h 55m
Length of Day
9h 57m
Waning Gibbous, 82% of the Moon is Illuminated
Nov 16
Waning Gibbous
Nov 19
Last Quarter
Nov 26
New
Dec 3
First Quarter
Dec 11
Full

Hourly Weather History & Observations

Time (MST) Temp. Windchill Dew Point Humidity Pressure Visibility Wind Dir Wind Speed Gust Speed Precip Events Conditions
12:12 AM 28.4 °F 13.3 °F 10.4 °F 47% 30.32 in 10.0 mi WNW 27.6 mph 34.5 mph N/A   Clear
12:30 AM 26.6 °F 11.1 °F 10.4 °F 51% 30.32 in 10.0 mi West 26.5 mph 34.5 mph N/A   Clear
12:54 AM 26.6 °F 11.7 °F 10.4 °F 51% 30.32 in 10.0 mi West 24.2 mph 31.1 mph N/A   Clear
1:31 AM 26.6 °F 10.6 °F 8.6 °F 47% 30.32 in 10.0 mi West 28.8 mph 36.8 mph N/A   Clear
2:12 AM 26.6 °F 10.3 °F 8.6 °F 47% 30.31 in 10.0 mi West 29.9 mph - N/A   Clear
2:30 AM 24.8 °F 9.0 °F 8.6 °F 50% 30.31 in 10.0 mi WNW 25.3 mph 36.8 mph N/A   Clear
2:54 AM 23.0 °F 7.2 °F 8.6 °F 54% 30.31 in 10.0 mi WNW 23.0 mph 33.4 mph N/A   Clear
3:11 AM 24.8 °F 9.3 °F 8.6 °F 50% 30.31 in 10.0 mi WNW 24.2 mph 32.2 mph N/A   Clear
3:29 AM 24.8 °F 9.0 °F 8.6 °F 50% 30.30 in 10.0 mi WNW 25.3 mph 35.7 mph N/A   Clear
3:53 AM 24.8 °F 9.0 °F 8.6 °F 50% 30.29 in 10.0 mi WNW 25.3 mph 35.7 mph N/A   Clear
4:12 AM 24.8 °F 10.3 °F 8.6 °F 50% 30.28 in 10.0 mi NW 20.7 mph 34.5 mph N/A   Clear
4:30 AM 23.0 °F 8.0 °F 6.8 °F 50% 30.28 in 10.0 mi WNW 20.7 mph 33.4 mph N/A   Clear
4:54 AM 23.0 °F 8.0 °F 6.8 °F 50% 30.27 in 10.0 mi NW 20.7 mph - N/A   Clear
5:12 AM 23.0 °F - 6.8 °F 50% 30.26 in 10.0 mi North - - N/A   Clear
5:30 AM 23.0 °F 7.2 °F 6.8 °F 50% 30.25 in 10.0 mi NW 23.0 mph 38.0 mph N/A   Clear
5:48 AM 23.0 °F 7.6 °F 6.8 °F 50% 30.25 in 10.0 mi NW 21.9 mph 36.8 mph N/A   Clear
6:12 AM 23.0 °F 6.0 °F 6.8 °F 50% 30.23 in 10.0 mi NW 27.6 mph 41.4 mph N/A   Clear
6:48 AM 23.0 °F 6.3 °F 6.8 °F 50% 30.24 in 10.0 mi NW 26.5 mph - N/A   Clear
7:12 AM 21.2 °F 4.9 °F 5.0 °F 50% 30.25 in 10.0 mi WNW 23.0 mph 34.5 mph N/A   Clear
7:30 AM 21.2 °F 1.9 °F 5.0 °F 50% 30.24 in 10.0 mi WNW 34.5 mph 43.7 mph N/A   Clear
7:48 AM 23.0 °F - 5.0 °F 46% 30.24 in 10.0 mi North - - N/A   Clear
8:12 AM 23.0 °F 5.1 °F 5.0 °F 46% 30.25 in 10.0 mi NW 31.1 mph 38.0 mph N/A   Clear
8:29 AM 21.2 °F 4.2 °F 5.0 °F 50% 30.26 in 10.0 mi NW 25.3 mph 35.7 mph N/A   Scattered Clouds
8:53 AM 21.2 °F 4.5 °F 5.0 °F 50% 30.26 in 10.0 mi NW 24.2 mph 36.8 mph N/A   Scattered Clouds
9:12 AM 23.0 °F 4.9 °F 5.0 °F 46% 30.26 in 10.0 mi WNW 32.2 mph 41.4 mph N/A   Scattered Clouds
9:30 AM 23.0 °F 5.4 °F 6.8 °F 50% 30.27 in 10.0 mi WNW 29.9 mph - N/A   Mostly Cloudy
9:48 AM 23.0 °F 6.3 °F 6.8 °F 50% 30.26 in 10.0 mi NW 26.5 mph 38.0 mph N/A   Mostly Cloudy
10:12 AM 23.0 °F 5.1 °F 8.6 °F 54% 30.25 in 10.0 mi NW 31.1 mph 41.4 mph N/A   Mostly Cloudy
10:30 AM 23.0 °F 5.1 °F 8.6 °F 54% 30.24 in 10.0 mi WNW 31.1 mph 42.6 mph N/A   Scattered Clouds
10:48 AM 26.6 °F 9.3 °F 8.6 °F 47% 30.25 in 10.0 mi WNW 34.5 mph 47.2 mph N/A   Mostly Cloudy
11:12 AM 26.6 °F 10.8 °F 8.6 °F 47% 30.24 in 10.0 mi NW 27.6 mph 38.0 mph N/A   Overcast
11:30 AM 24.8 °F 8.4 °F 8.6 °F 50% 30.24 in 10.0 mi WNW 27.6 mph - N/A   Overcast
11:48 AM 24.8 °F 8.7 °F 8.6 °F 50% 30.23 in 10.0 mi WNW 26.5 mph 35.7 mph N/A   Overcast
12:12 PM 23.0 °F 9.2 °F 6.8 °F 50% 30.23 in 10.0 mi NNW 17.3 mph 32.2 mph N/A   Overcast
12:30 PM 23.0 °F 7.2 °F 6.8 °F 50% 30.22 in 10.0 mi NNW 23.0 mph 31.1 mph N/A   Overcast
12:48 PM 23.0 °F 8.3 °F 6.8 °F 50% 30.22 in 10.0 mi NW 19.6 mph 31.1 mph N/A   Overcast
1:12 PM 24.8 °F 10.3 °F 8.6 °F 50% 30.22 in 10.0 mi WNW 20.7 mph 38.0 mph N/A   Overcast
1:30 PM 24.8 °F 10.3 °F 8.6 °F 50% 30.20 in 10.0 mi NW 20.7 mph 33.4 mph N/A Snow Light Snow
1:48 PM 23.0 °F 8.3 °F 6.8 °F 50% 30.21 in 7.0 mi NW 19.6 mph 34.5 mph N/A Snow Light Snow
2:11 PM 23.0 °F 7.6 °F 6.8 °F 50% 30.20 in 4.0 mi WNW 21.9 mph 34.5 mph N/A Snow Light Snow
2:29 PM 21.2 °F 7.8 °F 5.0 °F 50% 30.21 in 3.0 mi NW 15.0 mph 32.2 mph N/A Snow Light Snow
2:53 PM 21.2 °F 4.5 °F 3.2 °F 46% 30.20 in 0.2 mi NNW 24.2 mph 31.1 mph N/A Snow Heavy Snow
3:12 PM 19.4 °F 2.8 °F 3.2 °F 49% 30.20 in 0.2 mi NNW 21.9 mph 33.4 mph N/A Snow Light Snow
3:29 PM 19.4 °F 2.5 °F 3.2 °F 49% 30.20 in 0.2 mi NNW 23.0 mph 34.5 mph N/A Snow Light Snow
3:52 PM 19.4 °F 2.8 °F 3.2 °F 49% 30.22 in 0.2 mi NNW 21.9 mph 32.2 mph N/A   Haze
4:11 PM 19.4 °F 2.1 °F 3.2 °F 49% 30.22 in 0.2 mi NNW 24.2 mph 32.2 mph N/A Snow Heavy Snow
4:29 PM 19.4 °F 2.5 °F 3.2 °F 49% 30.22 in 0.2 mi NNW 23.0 mph 29.9 mph N/A Snow Heavy Snow
4:52 PM 19.4 °F 1.1 °F 1.4 °F 46% 30.22 in 0.2 mi NNW 27.6 mph 34.5 mph N/A   Haze
5:13 PM 19.4 °F 0.8 °F 1.4 °F 46% 30.24 in - NW 28.8 mph 36.8 mph N/A   Overcast
5:31 PM 19.4 °F -0.0 °F 1.4 °F 46% 30.23 in - NW 32.2 mph 39.1 mph N/A   Overcast
5:54 PM 19.4 °F 0.8 °F 1.4 °F 46% 30.24 in - NW 28.8 mph 34.5 mph N/A   Overcast
6:12 PM 17.6 °F -2.5 °F 1.4 °F 49% 30.25 in - NW 32.2 mph 35.7 mph N/A   Overcast
6:30 PM 17.6 °F -1.9 °F 1.4 °F 49% 30.26 in - NW 29.9 mph 34.5 mph N/A   Overcast
6:54 PM 17.6 °F 0.1 °F 1.4 °F 49% 30.26 in - NW 23.0 mph 39.1 mph N/A   Overcast
7:12 PM 17.6 °F 0.1 °F 1.4 °F 49% 30.26 in - NW 23.0 mph - N/A   Overcast
7:30 PM 17.6 °F 0.9 °F 1.4 °F 49% 30.28 in - NNW 20.7 mph 35.7 mph N/A   Overcast
8:12 PM 15.8 °F -5.0 °F -0.4 °F 49% 30.25 in - NW 32.2 mph 39.1 mph N/A   Overcast
8:30 PM 14.0 °F -8.0 °F -0.4 °F 53% 30.25 in - NW 34.5 mph - N/A   Overcast
8:48 PM 15.8 °F -5.8 °F -0.4 °F 49% 30.25 in - NW 35.7 mph 40.3 mph N/A   Overcast
9:12 PM 14.0 °F -4.3 °F -0.4 °F 53% 30.27 in - NW 21.9 mph 36.8 mph N/A   Overcast
9:30 PM 14.0 °F -5.8 °F -0.4 °F 53% 30.26 in - NW 26.5 mph 35.7 mph N/A   Overcast
9:48 PM 14.0 °F -5.8 °F -0.4 °F 53% 30.27 in - NW 26.5 mph 35.7 mph N/A   Overcast
10:12 PM 14.0 °F -5.8 °F -0.4 °F 53% 30.26 in - NW 26.5 mph 35.7 mph N/A   Overcast
10:30 PM 14.0 °F -5.8 °F -0.4 °F 53% 30.26 in - NW 26.5 mph 36.8 mph N/A   Overcast
10:48 PM 14.0 °F -5.8 °F -0.4 °F 53% 30.26 in - NW 26.5 mph 36.8 mph N/A   Overcast
11:12 PM 14.0 °F -6.8 °F -0.4 °F 53% 30.26 in - NW 29.9 mph 35.7 mph N/A   Overcast